| time (UTC) | temp C | wind direction | speed KPH | gust KPH | rain 1hr cm | rain 24hr cm | rain mn cm | humidity % | barometer mb |
| 20260505140503 | 19 | 189 | 4.8 | 17.7 | 0.00 | 0.00 | 0.00 | 55 | 1007.4 |
| 20260505140221 | 19 | 193 | 6.4 | 17.7 | 0.00 | 0.00 | 0.00 | 56 | 1007.4 |
| 20260505125003 | 17 | 344 | 3.2 | 11.3 | 0.00 | 0.00 | 0.00 | 60 | 1007.7 |
| 20260505124503 | 17 | 315 | 3.2 | 8.0 | 0.00 | 0.00 | 0.00 | 60 | 1007.7 |
| 20260505124002 | 16 | 213 | 3.2 | 11.3 | 0.00 | 0.00 | 0.00 | 61 | 1007.7 |
| 20260505123501 | 16 | 322 | 3.2 | 11.3 | 0.00 | 0.00 | 0.00 | 61 | 1007.8 |
| 20260505123001 | 16 | 211 | 1.6 | 8.0 | 0.00 | 0.00 | 0.00 | 63 | 1007.8 |
| 20260505122515 | 16 | 0 | 1.6 | 9.7 | 0.00 | 0.00 | 0.00 | 64 | 1007.8 |
| 20260505122015 | 16 | 0 | 3.2 | 9.7 | 0.00 | 0.00 | 0.00 | 64 | 1007.8 |
| 20260505121728 | 16 | 241 | 3.2 | 8.0 | 0.00 | 0.00 | 0.00 | 64 | 1007.8 |
| 20260505121002 | 16 | 266 | 1.6 | 8.0 | 0.00 | 0.00 | 0.00 | 64 | 1007.7 |
| 20260505120501 | 16 | 0 | 1.6 | 6.4 | 0.00 | 0.00 | 0.00 | 64 | 1007.7 |
| 20260505120003 | 15 | 190 | 3.2 | 8.0 | 0.00 | 0.00 | 0.00 | 65 | 1007.6 |
| 20260505115502 | 15 | 259 | 3.2 | 8.0 | 0.00 | 0.00 | 0.00 | 65 | 1007.6 |
| 20260505115002 | 15 | 165 | 3.2 | 8.0 | 0.00 | 0.00 | 0.00 | 67 | 1007.7 |
| 20260505114502 | 14 | 0 | 1.6 | 8.0 | 0.00 | 0.00 | 0.00 | 67 | 1007.7 |
| 20260505114001 | 14 | 219 | 1.6 | 6.4 | 0.00 | 0.00 | 0.00 | 68 | 1007.7 |
| 20260505113502 | 14 | 335 | 1.6 | 9.7 | 0.00 | 0.00 | 0.00 | 69 | 1007.7 |
| 20260505113015 | 13 | 0 | 3.2 | 9.7 | 0.00 | 0.00 | 0.00 | 69 | 1007.8 |
| 20260505112501 | 13 | 186 | 1.6 | 8.0 | 0.00 | 0.00 | 0.00 | 69 | 1007.8 |
| 20260505112002 | 13 | 0 | 0.0 | 4.8 | 0.00 | 0.00 | 0.00 | 71 | 1007.8 |
| 20260505111721 | 12 | 0 | 0.0 | 3.2 | 0.00 | 0.00 | 0.00 | 73 | 1007.8 |
| 20260505111001 | 12 | 0 | 0.0 | 3.2 | 0.00 | 0.00 | 0.00 | 73 | 1007.8 |
| 20260505110514 | 12 | 0 | 0.0 | 3.2 | 0.00 | 0.00 | 0.00 | 74 | 1007.9 |
| 20260505102002 | 9 | 353 | 1.6 | 3.2 | 0.00 | 0.00 | 0.00 | 84 | 1007.8 |
| 20260505101502 | 9 | 315 | 1.6 | 4.8 | 0.00 | 0.00 | 0.00 | 83 | 1007.8 |
| 20260505101002 | 9 | 313 | 1.6 | 4.8 | 0.00 | 0.00 | 0.00 | 83 | 1007.8 |
| 20260505100502 | 9 | 0 | 1.6 | 3.2 | 0.00 | 0.00 | 0.00 | 83 | 1007.7 |
| 20260505100001 | 9 | 311 | 1.6 | 3.2 | 0.00 | 0.00 | 0.00 | 83 | 1007.8 |
| 20260505095502 | 8 | 0 | 1.6 | 3.2 | 0.00 | 0.00 | 0.00 | 84 | 1007.8 |
| 20260505095002 | 8 | 0 | 0.0 | 3.2 | 0.00 | 0.00 | 0.00 | 84 | 1007.8 |
| 20260505094502 | 8 | 0 | 0.0 | 3.2 | 0.00 | 0.00 | 0.00 | 84 | 1007.9 |
| 20260505094001 | 8 | 0 | 0.0 | 3.2 | 0.00 | 0.00 | 0.00 | 83 | 1007.9 |
| 20260505093501 | 8 | 311 | 0.0 | 3.2 | 0.00 | 0.00 | 0.00 | 84 | 1007.9 |
| 20260505093002 | 8 | 0 | 0.0 | 3.2 | 0.00 | 0.00 | 0.00 | 84 | 1007.8 |
| 20260505092502 | 8 | 0 | 0.0 | 3.2 | 0.00 | 0.00 | 0.00 | 84 | 1007.8 |
| 20260505092015 | 8 | 0 | 0.0 | 3.2 | 0.00 | 0.00 | 0.00 | 84 | 1007.8 |
| 20260505091502 | 8 | 302 | 0.0 | 3.2 | 0.00 | 0.00 | 0.00 | 84 | 1007.8 |
| 20260505091002 | 8 | 0 | 0.0 | 1.6 | 0.00 | 0.00 | 0.00 | 83 | 1007.8 |
| 20260505090503 | 8 | 0 | 0.0 | 1.6 | 0.00 | 0.00 | 0.00 | 83 | 1007.8 |
| 20260505090001 | 8 | 0 | 0.0 | 1.6 | 0.00 | 0.00 | 0.00 | 83 | 1007.8 |
| 20260505085501 | 8 | 0 | 0.0 | 1.6 | 0.00 | 0.00 | 0.00 | 82 | 1007.7 |
| 20260505085001 | 8 | 0 | 0.0 | 3.2 | 0.00 | 0.00 | 0.00 | 82 | 1007.8 |
| 20260505084500 | 8 | 0 | 0.0 | 3.2 | 0.00 | 0.00 | 0.00 | 82 | 1007.9 |
| 20260505084001 | 9 | 0 | 0.0 | 0.0 | 0.00 | 0.00 | 0.00 | 81 | 1007.9 |
| 20260505083501 | 9 | 0 | 0.0 | 0.0 | 0.00 | 0.00 | 0.00 | 80 | 1007.9 |
| 20260505083221 | 9 | 0 | 0.0 | 1.6 | 0.00 | 0.00 | 0.00 | 79 | 1008.0 |
| 20260505082502 | 10 | 0 | 0.0 | 1.6 | 0.00 | 0.00 | 0.00 | 79 | 1008.0 |
| 20260505081959 | 10 | 320 | 0.0 | 3.2 | 0.00 | 0.00 | 0.00 | 78 | 1008.1 |
| 20260505081458 | 10 | 0 | 0.0 | 3.2 | 0.00 | 0.00 | 0.00 | 78 | 1008.1 |
| 20260505080958 | 10 | 0 | 0.0 | 1.6 | 0.00 | 0.00 | 0.00 | 77 | 1008.0 |
| 20260505080717 | 10 | 0 | 0.0 | 1.6 | 0.00 | 0.00 | 0.00 | 76 | 1008.1 |
| 20260505075955 | 10 | 0 | 0.0 | 0.0 | 0.00 | 0.00 | 0.00 | 75 | 1008.1 |
| 20260505075456 | 11 | 0 | 0.0 | 0.0 | 0.00 | 0.00 | 0.00 | 74 | 1008.1 |
| 20260505074956 | 11 | 0 | 0.0 | 1.6 | 0.00 | 0.00 | 0.00 | 73 | 1008.2 |
| 20260505074456 | 11 | 0 | 0.0 | 1.6 | 0.00 | 0.00 | 0.00 | 72 | 1008.2 |
| 20260505074222 | 11 | 0 | 0.0 | 0.0 | 0.00 | 0.00 | 0.00 | 71 | 1008.1 |
| 20260505073456 | 11 | 0 | 0.0 | 0.0 | 0.00 | 0.00 | 0.00 | 71 | 1008.1 |
| 20260505072956 | 12 | 0 | 0.0 | 3.2 | 0.00 | 0.00 | 0.00 | 70 | 1008.1 |
| 20260505072456 | 12 | 0 | 0.0 | 3.2 | 0.00 | 0.00 | 0.00 | 69 | 1008.1 |
| 20260505071957 | 12 | 0 | 0.0 | 3.2 | 0.00 | 0.00 | 0.00 | 69 | 1008.1 |
| 20260505071456 | 12 | 0 | 0.0 | 3.2 | 0.00 | 0.00 | 0.00 | 68 | 1008.1 |
| 20260505070956 | 12 | 0 | 0.0 | 3.2 | 0.00 | 0.00 | 0.00 | 67 | 1008.1 |
| 20260505070456 | 12 | 0 | 0.0 | 3.2 | 0.00 | 0.00 | 0.00 | 67 | 1008.0 |
| 20260505065954 | 12 | 0 | 1.6 | 6.4 | 0.00 | 0.00 | 0.00 | 67 | 1008.0 |
| 20260505065455 | 12 | 285 | 1.6 | 6.4 | 0.00 | 0.00 | 0.00 | 67 | 1008.0 |
| 20260505064954 | 12 | 0 | 0.0 | 4.8 | 0.00 | 0.00 | 0.00 | 66 | 1008.1 |
| 20260505064454 | 12 | 296 | 0.0 | 4.8 | 0.00 | 0.00 | 0.00 | 66 | 1008.1 |
| 20260505064007 | 12 | 0 | 0.0 | 3.2 | 0.00 | 0.00 | 0.00 | 66 | 1008.1 |
| 20260505063455 | 12 | 336 | 0.0 | 3.2 | 0.00 | 0.00 | 0.00 | 65 | 1008.0 |
| 20260505062955 | 12 | 0 | 0.0 | 3.2 | 0.00 | 0.00 | 0.00 | 65 | 1008.0 |
| 20260505062454 | 13 | 0 | 0.0 | 3.2 | 0.00 | 0.00 | 0.00 | 65 | 1008.0 |
| 20260505062007 | 13 | 0 | 0.0 | 3.2 | 0.00 | 0.00 | 0.00 | 64 | 1008.1 |
| 20260505061454 | 13 | 0 | 0.0 | 4.8 | 0.00 | 0.00 | 0.00 | 63 | 1008.1 |
| 20260505060954 | 13 | 0 | 0.0 | 4.8 | 0.00 | 0.00 | 0.00 | 63 | 1008.1 |
| 20260505060505 | 13 | 276 | 0.0 | 4.8 | 0.00 | 0.00 | 0.00 | 63 | 1008.1 |
| 20260505055952 | 13 | 236 | 1.6 | 4.8 | 0.00 | 0.00 | 0.00 | 63 | 1008.1 |
| 20260505055449 | 13 | 233 | 1.6 | 4.8 | 0.00 | 0.00 | 0.00 | 62 | 1008.2 |
| 20260505054948 | 13 | 291 | 1.6 | 8.0 | 0.00 | 0.00 | 0.00 | 62 | 1008.2 |
| 20260505054448 | 13 | 282 | 1.6 | 8.0 | 0.00 | 0.00 | 0.00 | 61 | 1008.2 |
| 20260505054001 | 13 | 0 | 0.0 | 4.8 | 0.00 | 0.00 | 0.00 | 62 | 1008.2 |
| 20260505053449 | 13 | 311 | 0.0 | 6.4 | 0.00 | 0.00 | 0.00 | 61 | 1008.2 |
| 20260505052949 | 13 | 0 | 1.6 | 8.0 | 0.00 | 0.00 | 0.00 | 61 | 1008.2 |
| 20260505052449 | 13 | 262 | 1.6 | 8.0 | 0.00 | 0.00 | 0.00 | 60 | 1008.2 |
| 20260505051949 | 13 | 0 | 0.0 | 6.4 | 0.00 | 0.00 | 0.00 | 61 | 1008.2 |
| 20260505051450 | 13 | 0 | 0.0 | 4.8 | 0.00 | 0.00 | 0.00 | 60 | 1008.2 |
| 20260505051433 | 13 | 0 | 0.0 | 3.2 | 0.00 | 0.00 | 0.00 | 60 | 1008.2 |
| 20260505050450 | 13 | 0 | 0.0 | 6.4 | 0.00 | 0.00 | 0.00 | 59 | 1008.3 |
| 20260505041448 | 15 | 186 | 1.6 | 6.4 | 0.00 | 0.00 | 0.00 | 54 | 1008.0 |
| 20260505040947 | 15 | 136 | 1.6 | 6.4 | 0.00 | 0.00 | 0.00 | 54 | 1008.0 |
| 20260505040444 | 15 | 226 | 1.6 | 6.4 | 0.00 | 0.00 | 0.00 | 53 | 1007.9 |
| 20260505035945 | 15 | 231 | 1.6 | 6.4 | 0.00 | 0.00 | 0.00 | 53 | 1007.9 |
| 20260505035445 | 15 | 221 | 1.6 | 6.4 | 0.00 | 0.00 | 0.00 | 53 | 1007.8 |
| 20260505034945 | 15 | 0 | 1.6 | 6.4 | 0.00 | 0.00 | 0.00 | 53 | 1007.8 |
| 20260505034444 | 15 | 163 | 3.2 | 6.4 | 0.00 | 0.00 | 0.00 | 52 | 1007.7 |
| 20260505033944 | 15 | 229 | 1.6 | 6.4 | 0.00 | 0.00 | 0.00 | 52 | 1007.7 |
| 20260505033445 | 15 | 0 | 1.6 | 6.4 | 0.00 | 0.00 | 0.00 | 52 | 1007.7 |
| 20260505032945 | 16 | 0 | 1.6 | 8.0 | 0.00 | 0.00 | 0.00 | 52 | 1007.8 |
| 20260505032704 | 16 | 159 | 1.6 | 8.0 | 0.00 | 0.00 | 0.00 | 52 | 1007.7 |
| 20260505031945 | 16 | 303 | 3.2 | 9.7 | 0.00 | 0.00 | 0.00 | 51 | 1007.7 |
| 20260505031445 | 16 | 167 | 3.2 | 9.7 | 0.00 | 0.00 | 0.00 | 50 | 1007.7 |
| 20260505030946 | 16 | 275 | 3.2 | 8.0 | 0.00 | 0.00 | 0.00 | 50 | 1007.7 |
| 20260505030446 | 16 | 0 | 3.2 | 9.7 | 0.00 | 0.00 | 0.00 | 50 | 1007.6 |
| 20260505025942 | 16 | 195 | 3.2 | 9.7 | 0.00 | 0.00 | 0.00 | 50 | 1007.7 |
| 20260505025443 | 16 | 234 | 1.6 | 8.0 | 0.00 | 0.00 | 0.00 | 50 | 1007.7 |
| 20260505024940 | 16 | 231 | 1.6 | 6.4 | 0.00 | 0.00 | 0.00 | 50 | 1007.6 |
| 20260505024704 | 16 | 317 | 1.6 | 6.4 | 0.00 | 0.00 | 0.00 | 50 | 1007.6 |
| 20260505024420 | 16 | 309 | 1.6 | 9.7 | 0.00 | 0.00 | 0.00 | 49 | 1007.6 |
| 20260505023440 | 16 | 250 | 1.6 | 9.7 | 0.00 | 0.00 | 0.00 | 48 | 1007.5 |
| 20260505022941 | 17 | 146 | 1.6 | 8.0 | 0.00 | 0.00 | 0.00 | 48 | 1007.6 |
| 20260505022439 | 17 | 0 | 3.2 | 11.3 | 0.00 | 0.00 | 0.00 | 47 | 1007.6 |
| 20260505021939 | 17 | 204 | 3.2 | 11.3 | 0.00 | 0.00 | 0.00 | 48 | 1007.5 |
| 20260505021657 | 17 | 168 | 3.2 | 9.7 | 0.00 | 0.00 | 0.00 | 48 | 1007.5 |
| 20260505020935 | 17 | 316 | 3.2 | 14.5 | 0.00 | 0.00 | 0.00 | 47 | 1007.4 |
| 20260505020434 | 17 | 254 | 4.8 | 14.5 | 0.00 | 0.00 | 0.00 | 46 | 1007.4 |
| 20260505020156 | 17 | 223 | 3.2 | 9.7 | 0.00 | 0.00 | 0.00 | 46 | 1007.3 |
| 20260505015431 | 17 | 289 | 3.2 | 12.9 | 0.00 | 0.00 | 0.00 | 46 | 1007.3 |
| 20260505014932 | 17 | 310 | 3.2 | 12.9 | 0.00 | 0.00 | 0.00 | 46 | 1007.2 |
| 20260505014430 | 17 | 222 | 3.2 | 9.7 | 0.00 | 0.00 | 0.00 | 45 | 1007.0 |
| 20260505013930 | 17 | 218 | 3.2 | 9.7 | 0.00 | 0.00 | 0.00 | 46 | 1007.0 |
| 20260505013430 | 17 | 189 | 3.2 | 11.3 | 0.00 | 0.00 | 0.00 | 45 | 1007.0 |
| 20260505012929 | 17 | 169 | 3.2 | 14.5 | 0.00 | 0.00 | 0.00 | 44 | 1006.9 |
| 20260505012429 | 17 | 219 | 3.2 | 14.5 | 0.00 | 0.00 | 0.00 | 43 | 1006.8 |
| 20260505011931 | 16 | 62 | 3.2 | 9.7 | 0.00 | 0.00 | 0.00 | 44 | 1006.7 |
| 20260505011653 | 16 | 221 | 1.6 | 9.7 | 0.00 | 0.00 | 0.00 | 45 | 1006.7 |
| 20260505010930 | 15 | 230 | 0.0 | 3.2 | 0.00 | 0.00 | 0.00 | 49 | 1006.6 |
| 20260505010430 | 15 | 0 | 0.0 | 4.8 | 0.00 | 0.00 | 0.00 | 48 | 1006.4 |
| 20260505010150 | 15 | 0 | 0.0 | 4.8 | 0.00 | 0.00 | 0.00 | 48 | 1006.3 |
| 20260505005431 | 15 | 0 | 0.0 | 0.0 | 0.00 | 0.00 | 0.00 | 49 | 1006.2 |
| 20260505004931 | 15 | 0 | 0.0 | 0.0 | 0.00 | 0.00 | 0.00 | 47 | 1006.1 |
| 20260505004431 | 16 | 0 | 0.0 | 0.0 | 0.00 | 0.00 | 0.00 | 47 | 1006.1 |
| 20260505004151 | 16 | 0 | 0.0 | 0.0 | 0.00 | 0.00 | 0.00 | 49 | 1006.0 |
| 20260505003430 | 16 | 0 | 0.0 | 0.0 | 0.00 | 0.00 | 0.00 | 47 | 1005.9 |
| 20260505002930 | 16 | 0 | 0.0 | 0.0 | 0.00 | 0.00 | 0.00 | 46 | 1005.8 |
| 20260505002429 | 17 | 0 | 0.0 | 0.0 | 0.00 | 0.00 | 0.00 | 44 | 1005.7 |
| 20260505002412 | 17 | 0 | 0.0 | 3.2 | 0.00 | 0.00 | 0.00 | 43 | 1005.6 |
| 20260505001430 | 17 | 0 | 0.0 | 3.2 | 0.00 | 0.00 | 0.00 | 42 | 1005.5 |
| 20260505000930 | 17 | 0 | 0.0 | 3.2 | 0.00 | 0.00 | 0.00 | 40 | 1005.4 |
| 20260505000430 | 18 | 0 | 0.0 | 3.2 | 0.00 | 0.00 | 0.00 | 40 | 1005.3 |
| 20260504235930 | 18 | 0 | 0.0 | 3.2 | 0.00 | 0.00 | 0.00 | 39 | 1005.3 |
| 20260504235431 | 18 | 0 | 0.0 | 1.6 | 0.00 | 0.00 | 0.00 | 38 | 1005.2 |
| 20260504235408 | 19 | 0 | 0.0 | 3.2 | 0.00 | 0.00 | 0.00 | 35 | 1005.1 |
| 20260504234429 | 19 | 0 | 0.0 | 4.8 | 0.00 | 0.00 | 0.00 | 36 | 1005.1 |
| 20260504233930 | 20 | 0 | 1.6 | 4.8 | 0.00 | 0.00 | 0.00 | 35 | 1005.1 |
| 20260504233914 | 20 | 351 | 1.6 | 6.4 | 0.00 | 0.00 | 0.00 | 35 | 1005.1 |
| 20260504232930 | 20 | 0 | 1.6 | 6.4 | 0.00 | 0.00 | 0.00 | 34 | 1005.0 |
| 20260504232430 | 20 | 216 | 1.6 | 6.4 | 0.00 | 0.00 | 0.00 | 34 | 1005.0 |
| 20260504231930 | 20 | 315 | 1.6 | 4.8 | 0.00 | 0.00 | 0.00 | 33 | 1004.9 |
| 20260504231430 | 20 | 0 | 1.6 | 6.4 | 0.00 | 0.00 | 0.00 | 32 | 1004.8 |
| 20260504230943 | 21 | 0 | 1.6 | 6.4 | 0.00 | 0.00 | 0.00 | 33 | 1004.7 |
| 20260504230430 | 21 | 177 | 1.6 | 6.4 | 0.00 | 0.00 | 0.00 | 32 | 1004.7 |
| 20260504225930 | 21 | 202 | 3.2 | 14.5 | 0.00 | 0.00 | 0.00 | 31 | 1004.6 |
| 20260504225430 | 21 | 229 | 4.8 | 14.5 | 0.00 | 0.00 | 0.00 | 31 | 1004.5 |
| 20260504225148 | 21 | 313 | 3.2 | 14.5 | 0.00 | 0.00 | 0.00 | 31 | 1004.5 |
| 20260504224653 | 21 | 0 | 3.2 | 12.9 | 0.00 | 0.00 | 0.00 | 31 | 1004.5 |
| 20260504223930 | 21 | 315 | 4.8 | 20.9 | 0.00 | 0.00 | 0.00 | 30 | 1004.4 |
| 20260504223911 | 21 | 161 | 4.8 | 20.9 | 0.00 | 0.00 | 0.00 | 30 | 1004.4 |
| 20260504222930 | 21 | 211 | 3.2 | 12.9 | 0.00 | 0.00 | 0.00 | 30 | 1004.3 |
| 20260504222431 | 21 | 190 | 3.2 | 12.9 | 0.00 | 0.00 | 0.00 | 31 | 1004.3 |
| 20260504221930 | 21 | 304 | 3.2 | 14.5 | 0.00 | 0.00 | 0.00 | 31 | 1004.4 |
| 20260504221430 | 21 | 309 | 4.8 | 14.5 | 0.00 | 0.00 | 0.00 | 30 | 1004.3 |
| 20260504220930 | 21 | 234 | 6.4 | 24.1 | 0.00 | 0.00 | 0.00 | 30 | 1004.3 |
| 20260504220429 | 21 | 285 | 4.8 | 24.1 | 0.00 | 0.00 | 0.00 | 30 | 1004.3 |
| 20260504220413 | 22 | 295 | 3.2 | 14.5 | 0.00 | 0.00 | 0.00 | 30 | 1004.4 |
| 20260504215430 | 22 | 65 | 4.8 | 14.5 | 0.00 | 0.00 | 0.00 | 30 | 1004.4 |
| 20260504214930 | 22 | 276 | 4.8 | 14.5 | 0.00 | 0.00 | 0.00 | 29 | 1004.3 |
| 20260504214430 | 22 | 344 | 4.8 | 14.5 | 0.00 | 0.00 | 0.00 | 30 | 1004.3 |
| 20260504213929 | 22 | 207 | 6.4 | 17.7 | 0.00 | 0.00 | 0.00 | 29 | 1004.2 |
| 20260504213429 | 22 | 172 | 4.8 | 17.7 | 0.00 | 0.00 | 0.00 | 30 | 1004.2 |
| 20260504213406 | 21 | 160 | 6.4 | 29.0 | 0.00 | 0.00 | 0.00 | 30 | 1004.1 |
| 20260504212430 | 21 | 201 | 6.4 | 29.0 | 0.00 | 0.00 | 0.00 | 31 | 1004.2 |
| 20260504211930 | 21 | 198 | 4.8 | 16.1 | 0.00 | 0.00 | 0.00 | 30 | 1004.3 |
| 20260504211430 | 21 | 161 | 4.8 | 12.9 | 0.00 | 0.00 | 0.00 | 31 | 1004.4 |
| 20260504210931 | 22 | 154 | 6.4 | 14.5 | 0.00 | 0.00 | 0.00 | 30 | 1004.3 |
| 20260504210430 | 22 | 15 | 6.4 | 14.5 | 0.00 | 0.00 | 0.00 | 30 | 1004.3 |
| 20260504205930 | 22 | 279 | 6.4 | 22.5 | 0.00 | 0.00 | 0.00 | 30 | 1004.2 |
| 20260504205430 | 22 | 51 | 9.7 | 24.1 | 0.00 | 0.00 | 0.00 | 30 | 1004.2 |
| 20260504204931 | 22 | 317 | 8.0 | 24.1 | 0.00 | 0.00 | 0.00 | 29 | 1004.2 |
| 20260504204430 | 22 | 0 | 6.4 | 19.3 | 0.00 | 0.00 | 0.00 | 30 | 1004.2 |
| 20260504203930 | 22 | 325 | 6.4 | 17.7 | 0.00 | 0.00 | 0.00 | 30 | 1004.3 |
| 20260504203430 | 21 | 280 | 6.4 | 17.7 | 0.00 | 0.00 | 0.00 | 29 | 1004.3 |
| 20260504203406 | 21 | 341 | 4.8 | 12.9 | 0.00 | 0.00 | 0.00 | 31 | 1004.3 |
| 20260504202430 | 21 | 53 | 4.8 | 22.5 | 0.00 | 0.00 | 0.00 | 31 | 1004.3 |
| 20260504201930 | 21 | 303 | 6.4 | 22.5 | 0.00 | 0.00 | 0.00 | 29 | 1004.3 |
| 20260504201430 | 21 | 147 | 4.8 | 16.1 | 0.00 | 0.00 | 0.00 | 30 | 1004.3 |
| 20260504201152 | 21 | 317 | 4.8 | 14.5 | 0.00 | 0.00 | 0.00 | 30 | 1004.3 |
| 20260504200429 | 21 | 332 | 4.8 | 12.9 | 0.00 | 0.00 | 0.00 | 31 | 1004.3 |
| 20260504195930 | 21 | 276 | 6.4 | 16.1 | 0.00 | 0.00 | 0.00 | 31 | 1004.4 |
| 20260504195431 | 21 | 221 | 6.4 | 16.1 | 0.00 | 0.00 | 0.00 | 30 | 1004.4 |
| 20260504194929 | 21 | 348 | 4.8 | 12.9 | 0.00 | 0.00 | 0.00 | 31 | 1004.4 |
| 20260504194430 | 21 | 192 | 4.8 | 14.5 | 0.00 | 0.00 | 0.00 | 31 | 1004.4 |
| 20260504193929 | 21 | 321 | 4.8 | 14.5 | 0.00 | 0.00 | 0.00 | 30 | 1004.4 |
| 20260504193431 | 21 | 181 | 4.8 | 14.5 | 0.00 | 0.00 | 0.00 | 30 | 1004.4 |
| 20260504193155 | 21 | 199 | 6.4 | 17.7 | 0.00 | 0.00 | 0.00 | 29 | 1004.4 |
| 20260504192653 | 21 | 310 | 6.4 | 20.9 | 0.00 | 0.00 | 0.00 | 30 | 1004.5 |
| 20260504191929 | 21 | 170 | 6.4 | 20.9 | 0.00 | 0.00 | 0.00 | 29 | 1004.4 |
| 20260504191428 | 21 | 176 | 6.4 | 20.9 | 0.00 | 0.00 | 0.00 | 29 | 1004.4 |
| 20260504190929 | 21 | 334 | 6.4 | 20.9 | 0.00 | 0.00 | 0.00 | 29 | 1004.5 |
| 20260504190429 | 21 | 244 | 6.4 | 17.7 | 0.00 | 0.00 | 0.00 | 30 | 1004.5 |
| 20260504185927 | 21 | 167 | 6.4 | 17.7 | 0.00 | 0.00 | 0.00 | 29 | 1004.6 |
| 20260504185426 | 21 | 260 | 6.4 | 14.5 | 0.00 | 0.00 | 0.00 | 29 | 1004.6 |
| 20260504184927 | 21 | 248 | 6.4 | 16.1 | 0.00 | 0.00 | 0.00 | 30 | 1004.6 |
| 20260504184427 | 21 | 267 | 6.4 | 19.3 | 0.00 | 0.00 | 0.00 | 30 | 1004.7 |
| 20260504183927 | 21 | 290 | 6.4 | 19.3 | 0.00 | 0.00 | 0.00 | 30 | 1004.7 |
| 20260504183426 | 20 | 157 | 6.4 | 16.1 | 0.00 | 0.00 | 0.00 | 30 | 1004.7 |
| 20260504183406 | 20 | 243 | 8.0 | 17.7 | 0.00 | 0.00 | 0.00 | 30 | 1004.7 |
| 20260504182427 | 20 | 293 | 6.4 | 17.7 | 0.00 | 0.00 | 0.00 | 29 | 1004.6 |
| 20260504181927 | 21 | 321 | 4.8 | 17.7 | 0.00 | 0.00 | 0.00 | 29 | 1004.6 |
| 20260504181427 | 21 | 268 | 6.4 | 20.9 | 0.00 | 0.00 | 0.00 | 30 | 1004.8 |
| 20260504180926 | 21 | 211 | 8.0 | 20.9 | 0.00 | 0.00 | 0.00 | 30 | 1004.8 |
| 20260504180426 | 21 | 185 | 6.4 | 19.3 | 0.00 | 0.00 | 0.00 | 31 | 1004.6 |
| 20260504175927 | 21 | 164 | 8.0 | 19.3 | 0.00 | 0.00 | 0.00 | 30 | 1004.7 |
| 20260504175427 | 21 | 336 | 6.4 | 16.1 | 0.00 | 0.00 | 0.00 | 30 | 1004.8 |
| 20260504174927 | 21 | 211 | 6.4 | 16.1 | 0.00 | 0.00 | 0.00 | 30 | 1004.8 |
| 20260504174428 | 21 | 191 | 6.4 | 19.3 | 0.00 | 0.00 | 0.00 | 31 | 1004.8 |
| 20260504173928 | 21 | 161 | 8.0 | 22.5 | 0.00 | 0.00 | 0.00 | 30 | 1004.8 |
| 20260504173427 | 21 | 277 | 8.0 | 27.4 | 0.00 | 0.00 | 0.00 | 30 | 1004.9 |
| 20260504172924 | 20 | 166 | 8.0 | 27.4 | 0.00 | 0.00 | 0.00 | 32 | 1004.9 |
| 20260504172425 | 21 | 342 | 8.0 | 25.7 | 0.00 | 0.00 | 0.00 | 30 | 1005.0 |
| 20260504171925 | 20 | 157 | 8.0 | 25.7 | 0.00 | 0.00 | 0.00 | 32 | 1005.0 |
| 20260504171424 | 20 | 265 | 8.0 | 22.5 | 0.00 | 0.00 | 0.00 | 32 | 1005.0 |
| 20260504170924 | 20 | 187 | 8.0 | 22.5 | 0.00 | 0.00 | 0.00 | 32 | 1005.0 |
| 20260504170425 | 20 | 175 | 8.0 | 22.5 | 0.00 | 0.00 | 0.00 | 31 | 1005.1 |
| 20260504160420 | 19 | 285 | 6.4 | 16.1 | 0.00 | 0.00 | 0.00 | 35 | 1005.6 |
| 20260504150915 | 17 | 8 | 6.4 | 16.1 | 0.00 | 0.00 | 0.00 | 38 | 1006.2 |
| 20260504150415 | 17 | 258 | 6.4 | 14.5 | 0.00 | 0.00 | 0.00 | 37 | 1006.4 |